#timestamp,LO_Frequency,Hit,StdDev 
1502334015.9,286046998.8,N,0.8
1502334035.7,286047000.5,N,0.9
1502334055.5,286046998.6,N,0.9
1502334075.4,286046998.5,N,0.9
1502334095.2,286046998.8,N,0.8
1502334115.1,286046998.6,N,0.8
1502334116.0,286047011.9,Y,0.0
1502334135.8,286047000.0,P,0.5
1502334155.6,286047000.1,N,0.5
1502334175.5,286047000.1,N,0.4
1502334195.3,286047000.6,N,0.5
1502334215.2,286046999.8,N,0.5
1502334235.9,286047000.1,N,0.4
1502334255.7,286046999.8,N,0.4
1502334275.6,286047002.2,Y,0.0
1502334295.4,286047002.8,P,1.4
1502334315.3,286047000.4,N,1.3
1502334335.1,286047002.3,N,1.2
1502334355.8,286046999.9,N,1.2
1502334375.7,286046999.7,N,1.2
1502334395.5,286047000.2,N,1.2
1502334415.4,286047000.1,N,1.1
1502334435.2,286047002.8,N,1.2
1502334455.0,286047000.6,N,1.2
1502334455.9,286047000.6,N,1.1
1502334475.8,286047000.4,N,1.1
1502334495.6,286047000.0,N,1.1
1502334515.5,286047000.3,N,1.0
1502334535.3,286046999.9,N,1.0
1502334555.1,286046999.7,N,1.0
1502334575.9,286046999.9,N,1.0
1502334595.7,286047002.6,N,1.1
1502334615.5,286047002.7,N,1.1
1502334635.4,286047001.9,N,1.1
1502334655.2,286047001.9,N,1.1
1502334675.1,286046999.8,N,1.1
1502334676.0,286046999.8,N,1.1
1502334695.8,286047002.3,N,1.1
1502334715.6,286047000.9,N,1.1
1502334735.5,286047000.4,N,1.1
1502334755.3,286047002.6,N,1.1
1502334775.2,286047002.4,N,1.1
1502334795.9,286047000.3,N,1.1
1502334815.7,286047000.0,N,1.1
1502334835.6,286047002.1,N,1.1
1502334855.4,286046999.9,N,1.1
1502334875.3,286047000.1,N,1.1
1502334895.1,286047002.5,N,1.1
1502334896.0,286047002.5,N,1.1
1502334915.8,286047000.2,N,1.1
1502334935.7,286047001.9,N,1.1
1502334955.5,286047002.6,N,1.1
1502334975.4,286047001.5,N,1.1
1502334995.2,286047001.7,N,1.1
1502335015.0,286047001.5,N,1.1
1502335015.9,286047001.5,N,1.1
1502335035.8,286047002.5,N,1.1
1502335055.6,286046999.8,N,1.1
1502335075.5,286047002.7,N,1.1
1502335095.3,286047002.1,N,1.1
1502335115.1,286047001.6,N,1.0
1502335135.9,286047002.5,N,1.0
1502335155.7,286047001.9,N,1.0
1502335175.6,286047000.1,N,1.0
1502335195.4,286047000.3,N,1.1
1502335215.2,286047002.7,N,1.0
1502335235.1,286047002.3,N,1.0
1502335236.0,286047002.3,N,1.0
1502335255.8,286047002.5,N,1.0
1502335275.7,286047002.6,N,1.0
1502335295.5,286047002.3,N,1.0
1502335315.3,286047000.2,N,1.0
1502335335.2,286047000.9,N,1.0
1502335355.0,286047002.6,N,1.0
1502335355.9,286047002.6,N,1.0
1502335375.7,286047002.4,N,0.9
1502335395.6,286047002.7,N,0.9
1502335415.4,286047002.0,N,0.9
1502335435.3,286047002.6,N,0.9
1502335455.1,286047004.3,Y,0.0
1502335475.8,286047001.9,P,0.0
1502335495.7,286047000.2,P,0.8
1502335515.5,286047002.2,N,0.8
1502335535.4,286047002.4,Y,0.0
1502335555.2,286046998.5,P,1.5
1502335575.0,286047000.8,N,1.3
1502335576.0,286047000.8,N,1.1
1502335595.8,286046998.5,N,1.3
1502335615.6,286046999.1,N,1.2
1502335635.5,286047000.7,N,1.2
1502335655.3,286047001.1,N,1.1
1502335675.1,286046998.5,N,1.2
1502335695.9,286046999.5,N,1.1
1502335715.7,286046999.3,N,1.1
1502335735.6,286046997.1,N,1.3
1502335755.4,286046996.6,N,1.5
1502335775.2,286046996.5,N,1.6
1502335795.1,286046999.4,N,1.6
1502335796.0,286046999.4,N,1.5
1502335815.8,286046998.6,N,1.5
1502335835.7,286046998.8,N,1.4
1502335855.5,286046998.1,N,1.4
1502335875.3,286046998.2,N,1.4
1502335895.2,286046998.4,N,1.4
1502335915.0,286046998.7,N,1.3
1502335915.9,286046998.7,N,1.3
1502335935.8,286046998.8,N,1.3
1502335955.6,286047001.2,N,1.3
1502335975.4,286682703.7,Y,0.0
1502335995.3,286047000.1,P,0.5
1502336015.1,286047000.7,N,0.7
1502336035.8,286047000.4,N,0.6
1502336055.7,286047002.2,Y,0.0
1502336075.5,286047002.7,P,1.3
1502336095.4,286047002.5,N,1.2
1502336115.2,286047001.8,N,1.0
1502336135.0,286046999.7,N,1.2
1502336135.9,286046999.7,N,1.3
1502336155.8,286047002.3,N,1.3
1502336175.6,286047002.7,N,1.3
1502336195.5,286047000.6,N,1.2
1502336215.3,286047000.4,N,1.2
1502336235.1,286047002.8,N,1.2
1502336255.9,286047000.4,N,1.2
1502336275.7,286047000.2,N,1.2
1502336295.6,286047000.2,N,1.2
1502336315.4,286046999.7,N,1.2
1502336335.2,286047000.6,N,1.2
1502336355.1,286047001.0,N,1.1
1502336356.0,286047001.0,N,1.1
1502336375.8,286046999.9,N,1.1
1502336395.7,286047002.3,N,1.1
1502336415.5,286047002.3,N,1.1
1502336435.3,286046999.8,N,1.1
1502336455.2,286047000.5,N,1.1
1502336475.0,286047000.3,N,1.1
1502336475.9,286047000.3,N,1.1
1502336495.7,286047001.0,N,1.1
1502336515.6,286047000.4,N,1.0
1502336535.4,286047000.5,N,1.0
1502336555.3,286047000.6,N,1.0
1502336575.1,286047001.0,N,1.0
1502336595.8,286047000.5,N,1.0
1502336615.7,286046998.6,N,1.0
1502336635.5,286046998.5,N,1.0
1502336655.4,286046999.3,N,1.0
1502336675.2,286046999.4,N,1.1
1502336695.0,286046999.3,N,1.1
1502336695.9,286046999.3,N,1.0
1502336715.8,286046998.1,N,1.0
1502336735.6,286046998.7,N,1.1
1502336755.5,286046998.3,N,1.1
1502336775.3,286046998.7,N,1.0
1502336795.1,286046999.3,N,1.0
1502336815.9,286046998.7,N,1.1
1502336835.7,286046998.7,N,1.1
1502336855.5,286046999.0,N,1.1
1502336875.4,286046996.6,Y,0.0
1502336895.2,286046999.4,P,0.2
1502336915.1,286046998.8,P,0.4
1502336916.0,286046998.8,N,0.4
1502336935.8,286046998.9,N,0.4
1502336955.6,286046997.0,Y,0.0
1502336975.5,286046999.4,P,0.1
1502336995.3,286046999.0,P,0.2
1502337015.2,286046998.7,P,0.3
1502337035.9,286046998.7,Y,0.0
1502337055.7,286047001.2,P,1.1
1502337075.6,286047001.0,N,1.0
1502337095.4,286047000.8,N,0.9
1502337115.3,286046998.4,N,1.1
1502337135.1,286046998.9,N,1.1
1502337136.0,286046998.9,N,1.1
1502337155.8,286046998.7,N,1.1
1502337175.7,286046998.7,N,1.1
1502337195.5,286046998.7,N,1.0
1502337215.4,286046999.0,N,1.0
1502337235.2,286046999.5,N,1.0
1502337255.0,286046998.7,N,0.9
1502337255.9,286046998.7,N,0.9
1502337275.8,286046999.5,N,0.9
1502337295.6,286046996.7,Y,0.0
1502337315.5,286046998.4,P,0.5
1502337335.3,286046998.5,P,0.4
1502337355.1,286046998.4,P,0.4
1502337375.9,286046998.8,Y,0.0
1502337395.7,286047000.0,P,0.7
1502337415.6,286047002.8,P,1.7
1502337435.4,286047000.1,N,1.5
1502337455.2,286047000.3,N,1.3
1502337475.1,286047000.8,N,1.2
1502337476.0,286047000.8,N,1.2
1502337495.8,286047000.5,N,1.1
1502337515.7,286047001.0,N,1.0
1502337535.5,286047000.8,N,1.0
1502337555.3,286046998.3,N,1.1
1502337575.2,286046998.1,N,1.3
1502337595.0,286047001.1,N,1.2
1502337595.9,286047001.1,N,1.2
